www.pogodaiklimat.ru

Погода и климат >> Архив погоды >> Ирландия >> Белмаллет


ПОГОДА в Белмаллете

  • Прогноз погоды в Белмаллете
  • Монитор погоды в Белмаллете

АРХИВ ПОГОДЫ в Белмаллете

Время (UTC), дата Ветер
(напр.,м/с)
 
Видим.   Явления Облачность Т
(С)
Тd
(С)
f
(%)
Тe
(С)
Тes
(С)
Комфортность P
(гПа)
Po
(гПа)
Тmin
(С)
Tmax
(С)
R
(мм)
R24
(мм)
S
(см)
10 15.05 Ю 6 29 км н/о +15.5 +6.9 57 +14 +14 1021.9 1020.7
11 15.05 Ю 7 27 км н/о +18.2 +7.8 51 +18 +18 1021.3 1020.1
12 15.05 Ю 5 30 км н/о +19.7 +8.5 48 +20 +20 1021.3 1020.1
13 15.05 ЮЗ 5 29 км н/о +17.9 +7.3 50 +18 +18 1021.4 1020.3
14 15.05 Ю 5 28 км н/о +18.3 +7.9 51 +18 +18 1021.0 1019.9
15 15.05 Ю 4 30 км н/о +19.1 +9.5 54 +20 +20 1020.5 1019.4
16 15.05 ЮЗ 5 25 км н/о +16.6 +10.1 65 +16 +16 1020.3 1019.2
17 15.05 ЮЗ 2 21 км н/о +16.6 +10.5 67 +17 +17 1020.2 1019.0
18 15.05 СВ 2 24 км н/о +17.1 +9.2 60 +17 +17 1019.9 1018.8 +20.4
19 15.05 СВ 2 23 км н/о +15.2 +9.4 68 +15 +15 1019.6 1018.5
20 15.05 СВ 2 24 км н/о +13.8 +8.6 71 +13 +13 1019.6 1018.4
21 15.05 С 2 25 км н/о +12.7 +8.2 74 +12 +12 1019.8 1018.6
22 15.05 С 2 25 км н/о +12.4 +8.1 75 +12 +12 1020.1 1018.9
23 15.05 Ю 3 15 км н/о +12.6 +9.4 81 +11 +11 1020.0 1018.8
00 16.05 ЮЗ 4 16 км н/о +12.9 +9.4 79 +11 +11 1019.8 1018.6
01 16.05 Ю 3 19 км н/о +12.8 +8.9 77 +11 +11 1019.5 1018.3
02 16.05 З 2 17 км н/о +12.4 +8.2 76 +12 +12 1019.2 1018.0
03 16.05 Ю 2 18 км н/о +12.5 +8.3 76 +12 +12 1018.9 1017.7
04 16.05 В 1 17 км слаб. ливневой дождь н/о +12.1 +8.7 80 +12 +12 1018.6 1017.5
05 16.05 В 2 22 км в посл. час дождь {ливн. осадки} н/о +11.2 +8.1 81 +10 +10 1018.5 1017.3
06 16.05 В 2 21 км слаб. ливневой дождь н/о +11.3 +8.3 82 +10 +10 1018.6 1017.4 +11.0 0.0
07 16.05 В 2 15 км слаб. дождь н/о +11.1 +8.9 86 +10 +10 1018.7 1017.5
08 16.05 В 2 23 км в посл. час дождь {ливн. осадки} н/о +11.4 +8.7 83 +10 +10 1018.6 1017.4
09 16.05 ЮВ 3 23 км {ливн. осадки, дождь} н/о +12.7 +8.0 73 +11 +11 1018.3 1017.1
10 16.05 Ю 3 28 км н/о +14.1 +8.5 69 +13 +13 1018.2 1017.0
11 16.05 ЮЗ 2 26 км н/о +14.9 +7.8 62 +15 +15 1018.0 1016.8
12 16.05 Ю 2 35 км {ливн. осадки, дождь} н/о +15.1 +5.3 52 +15 +15 1017.6 1016.4 0.4
13 16.05 С 3 25 км н/о +15.8 +8.2 61 +15 +15 1017.5 1016.3
14 16.05 СЗ 2 27 км н/о +16.2 +7.4 56 +16 +16 1017.2 1016.1
15 16.05 З 2 24 км слаб. дождь н/о +15.1 +6.3 56 +15 +15 1017.0 1015.8
16 16.05 СЗ 3 28 км в посл. час морось н/о +14.4 +7.2 62 +14 +14 1016.6 1015.4
17 16.05 С 2 23 км н/о +14.3 +8.2 67 +14 +14 1016.3 1015.1
18 16.05 З 2 14 км слаб. морось н/о +13.5 +8.7 73 +13 +13 1016.3 1015.2 +16.3 0.4
19 16.05 С 1 11 км слаб. ливневой дождь н/о +12.3 +9.1 81 +12 +12 1016.3 1015.2
20 16.05 СЗ 1 11 км слаб. морось {дождь} н/о +11.6 +9.2 85 +11 +11 1016.5 1015.3
21 16.05 СЗ 2 10 км слаб. ливневой дождь н/о +10.8 +9.1 89 +9 +9 1016.4 1015.2
22 16.05 С 2 9000 м морось н/о +10.5 +9.0 90 +9 +9 1016.3 1015.1
23 16.05 С 1 12 км слаб. ливневой дождь н/о +10.1 +8.8 92 +10 +10 1016.2 1015.0
00 17.05 СВ 1 7000 м слаб. ливневой дождь н/о +10.0 +8.8 92 +9 +9 1015.8 1014.6 1
01 17.05 С 1 9000 м слаб. ливневой дождь н/о +10.0 +8.9 93 +9 +9 1015.5 1014.3
02 17.05 С 1 8000 м в посл. час морось н/о +9.8 +8.7 93 +9 +9 1015.3 1014.1
03 17.05 СВ 1 11 км {ливн. осадки, морось} н/о +9.1 +8.1 93 +8 +8 1015.2 1014.0
04 17.05 СВ 1 8000 м дымка н/о +8.3 +7.3 93 +7 +7 1015.2 1014.0
05 17.05 С 2 6000 м дымка н/о +8.4 +7.5 94 +6 +6 1015.2 1014.0
06 17.05 С 2 10 км дымка {ливн. осадки} н/о +9.7 +8.9 95 +8 +8 1015.3 1014.1 +8.1 1
07 17.05 СВ 3 18 км н/о +11.1 +9.6 90 +9 +9 1015.4 1014.2
08 17.05 СВ 3 14 км н/о +12.2 +10.3 88 +11 +11 1015.3 1014.1
09 17.05 СВ 2 14 км н/о +13.3 +9.7 79 +13 +13 1015.2 1014.1
10 17.05 С 1 15 км н/о +14.6 +9.5 71 +15 +15 1015.2 1014.0
11 17.05 С 4 16 км н/о +14.6 +9.3 70 +13 +13 1015.1 1013.9
12 17.05 С 3 19 км н/о +15.9 +9.3 65 +15 +15 1015.0 1013.8
13 17.05 С 5 19 км н/о +16.8 +9.4 62 +16 +16 1014.9 1013.7
14 17.05 С 5 19 км н/о +13.2 +8.7 74 +11 +11 1014.9 1013.7
15 17.05 СВ 5 8000 м ливневой дождь н/о +12.0 +9.7 86 +10 +10 1014.8 1013.6
16 17.05 С 6 20 км в посл. час дождь {ливн. осадки} н/о +12.7 +10.3 85 +10 +10 1014.2 1013.1
17 17.05 С 7 23 км н/о +13.0 +10.1 83 +10 +10 1014.2 1013.0
18 17.05 С 6 19 км {ливн. осадки} н/о +12.4 +9.5 82 +10 +10 1014.2 1013.0 +16.8 2
19 17.05 С 5 17 км н/о +12.1 +9.3 83 +10 +10 1014.3 1013.1
20 17.05 С 4 14 км н/о +11.7 +9.4 86 +9 +9 1014.4 1013.2
21 17.05 С 4 11 км н/о +11.3 +9.5 89 +9 +9 1014.6 1013.4
22 17.05 С 3 17 км н/о +11.1 +9.5 90 +9 +9 1014.4 1013.2
23 17.05 С 3 18 км н/о +10.6 +9.2 91 +8 +8 1014.1 1012.9
00 18.05 С 3 20 км н/о +10.7 +9.3 91 +9 +9 1013.8 1012.6
01 18.05 С 4 40 км н/о +10.4 +8.3 87 +8 +8 1013.4 1012.2
02 18.05 С 3 30 км н/о +10.2 +7.9 86 +8 +8 1013.2 1012.0
03 18.05 С 3 35 км н/о +10.0 +7.5 84 +8 +8 1012.9 1011.7
04 18.05 С 3 35 км н/о +10.0 +7.4 84 +8 +8 1012.6 1011.4
05 18.05 С 4 10 км н/о +10.8 +8.9 88 +8 +8 1012.3 1011.2
06 18.05 С 5 11 км слаб. морось н/о +10.9 +9.5 91 +8 +8 1012.3 1011.1 +10.0 0.0
07 18.05 СЗ 5 14 км слаб. ливневой дождь н/о +11.0 +9.6 91 +8 +8 1012.3 1011.1
08 18.05 С 5 15 км слаб. ливневой дождь н/о +11.2 +9.7 90 +8 +8 1012.5 1011.3
09 18.05 С 6 21 км в посл. час морось {ливн. осадки} н/о +11.8 +9.9 88 +9 +9 1012.3 1011.2
10 18.05 С 6 20 км н/о +12.1 +9.5 84 +9 +9 1012.3 1011.1
11 18.05 С 5 25 км н/о +12.8 +9.3 79 +11 +11 1012.1 1011.0
12 18.05 С 6 22 км {ливн. осадки, морось} н/о +13.7 +9.2 74 +12 +12 1012.0 1010.9 0.0
13 18.05 СЗ 6 25 км н/о +13.2 +9.2 77 +11 +11 1012.0 1010.8
14 18.05 СЗ 7 19 км н/о +12.7 +9.4 80 +10 +10 1012.0 1010.8
15 18.05 СЗ 7 20 км н/о +13.5 +9.6 77 +11 +11 1012.0 1010.8
16 18.05 СЗ 7 19 км н/о +13.0 +9.7 80 +10 +10 1012.0 1010.8
17 18.05 СЗ 7 20 км н/о +13.0 +9.7 80 +10 +10 1012.1 1010.9
18 18.05 СЗ 6 21 км н/о +12.6 +9.4 81 +10 +10 1012.3 1011.1 +13.8 0.0
19 18.05 СЗ 5 18 км н/о +11.7 +8.9 83 +9 +9 1012.2 1011.1
20 18.05 СЗ 5 17 км н/о +11.3 +8.8 85 +9 +9 1012.4 1011.2
21 18.05 СЗ 5 16 км н/о +11.1 +8.9 86 +8 +8 1012.6 1011.4
22 18.05 С 5 19 км н/о +11.0 +8.3 83 +8 +8 1012.7 1011.5
23 18.05 С 6 18 км в посл. час морось н/о +10.9 +8.7 86 +8 +8 1012.8 1011.6
00 19.05 СЗ 6 20 км {морось} н/о +10.8 +8.6 86 +8 +8 1012.9 1011.7 0.0
01 19.05 СЗ 7 20 км н/о +10.4 +8.3 87 +7 +7 1012.7 1011.5
02 19.05 СЗ 7 22 км н/о +10.4 +8.0 85 +7 +7 1012.6 1011.5
03 19.05 СЗ 7 22 км н/о +10.4 +7.7 83 +7 +7 1012.6 1011.4
04 19.05 СЗ 6 25 км в посл. час морось н/о +9.7 +7.2 84 +6 +6 1012.7 1011.5
05 19.05 СЗ 6 26 км н/о +9.7 +7.4 86 +6 +6 1012.9 1011.7
06 19.05 СЗ 6 23 км {морось} н/о +10.1 +7.6 84 +7 +7 1013.0 1011.8 +9.5 0.0
07 19.05 СЗ 6 22 км н/о +10.7 +7.9 83 +7 +7 1013.3 1012.1
08 19.05 СЗ 6 21 км н/о +11.1 +8.0 81 +8 +8 1013.5 1012.3
09 19.05 СЗ 7 30 км в посл. час морось н/о +11.8 +7.8 76 +9 +9 1013.8 1012.6
10 19.05 СЗ 7 28 км н/о +12.4 +7.1 70 +10 +10 1013.9 1012.7
11 19.05 СЗ 8 24 км н/о +12.9 +8.1 73 +10 +10 1014.2 1013.0
12 19.05 СЗ 7 27 км {морось} н/о +13.3 +7.9 70 +11 +11 1014.6 1013.4 0.0
13 19.05 СЗ 6 24 км н/о +13.3 +7.3 67 +11 +11 1014.8 1013.7
14 19.05 СЗ 6 25 км н/о +13.7 +7.1 64 +12 +12 1015.0 1013.9
15 19.05 СЗ 6 25 км н/о +13.6 +7.1 65 +12 +12 1015.1 1013.9
16 19.05 СЗ 7 26 км н/о +13.0 +7.2 68 +10 +10 1015.0 1013.8
17 19.05 СЗ 7 26 км н/о +13.2 +7.3 67 +11 +11 1015.0 1013.8
18 19.05 СЗ 7 28 км н/о +12.7 +7.5 71 +10 +10 1015.2 1014.0 +14.2 0.0
19 19.05 СЗ 5 23 км в посл. час дождь {ливн. осадки} н/о +11.7 +7.7 76 +9 +9 1015.3 1014.1
20 19.05 СЗ 4 28 км н/о +10.6 +7.1 79 +8 +8 1015.5 1014.3
21 19.05 СЗ 4 26 км слаб. ливневой дождь н/о +10.4 +7.4 82 +8 +8 1015.8 1014.6
22 19.05 СЗ 4 25 км н/о +9.6 +7.0 84 +7 +7 1016.1 1014.9
23 19.05 СЗ 4 27 км н/о +9.6 +7.0 84 +7 +7 1016.1 1014.9
00 20.05 СЗ 3 25 км {ливн. осадки} н/о +9.4 +7.0 85 +7 +7 1016.2 1015.0 0.0
01 20.05 СЗ 4 26 км н/о +8.8 +6.2 84 +6 +6 1016.0 1014.8
02 20.05 СЗ 3 30 км н/о +8.3 +6.0 85 +6 +6 1015.9 1014.7
03 20.05 СЗ 4 29 км н/о +8.1 +5.9 86 +5 +5 1015.9 1014.7
04 20.05 С 2 35 км н/о +7.9 +5.6 85 +6 +6 1015.9 1014.7
05 20.05 С 3 35 км н/о +6.6 +4.7 88 +3 +3 1016.0 1014.8
06 20.05 С 2 35 км н/о +8.7 +6.7 87 +7 +7 1016.3 1015.1 +6.4 0.0
07 20.05 С 3 35 км н/о +10.5 +6.4 76 +9 +9 1016.7 1015.5
08 20.05 С 3 30 км н/о +10.7 +6.0 73 +9 +9 1017.0 1015.8
09 20.05 С 4 35 км н/о +11.7 +5.5 66 +10 +10 1017.1 1016.0
10 20.05 С 4 30 км н/о +12.2 +5.6 64 +10 +10 1017.4 1016.2
11 20.05 С 4 27 км н/о +13.9 +4.0 51 +13 +13 1017.5 1016.4
12 20.05 С 4 35 км н/о +14.0 +5.2 55 +13 +13 1017.7 1016.6
13 20.05 СЗ 4 28 км н/о +14.1 +5.6 57 +13 +13 1018.0 1016.8
14 20.05 СЗ 4 30 км н/о +14.7 +5.0 52 +14 +14 1018.1 1016.9
15 20.05 С 4 30 км н/о +14.8 +5.9 55 +14 +14 1018.3 1017.1
16 20.05 С 4 35 км н/о +14.9 +3.0 45 +14 +14 1018.5 1017.3
17 20.05 С 4 35 км н/о +14.5 +5.1 53 +13 +13 1018.7 1017.5
18 20.05 С 3 35 км н/о +13.4 +5.7 60 +12 +12 1018.7 1017.5 +15.2
19 20.05 С 4 40 км н/о +12.8 +4.9 59 +11 +11 1018.7 1017.5
20 20.05 С 3 50 км н/о +11.3 +5.1 66 +10 +10 1019.0 1017.8
21 20.05 СВ 2 45 км н/о +8.2 +4.2 76 +6 +6 1019.4 1018.2
22 20.05 СВ 2 45 км н/о +6.8 +3.9 82 +5 +5 1019.7 1018.5
23 20.05 В 1 40 км н/о +6.9 +4.5 85 +6 +6 1019.8 1018.6
00 21.05 С 1 35 км н/о +6.4 +4.3 86 +5 +5 1020.0 1018.8
01 21.05 СВ 1 35 км н/о +5.4 +3.8 89 +4 +4 1020.1 1018.9
02 21.05 СВ 1 40 км н/о +4.7 +3.2 90 +3 +3 1020.3 1019.0
03 21.05 СВ 1 29 км н/о +4.8 +3.6 92 +3 +3 1020.3 1019.1
04 21.05 СВ 1 35 км н/о +4.5 +3.5 93 +3 +3 1020.3 1019.1
05 21.05 СВ 1 40 км н/о +4.7 +3.8 94 +3 +3 1020.4 1019.2
06 21.05 В 1 35 км н/о +5.9 +5.1 95 +5 +5 1020.4 1019.2 +4.1
07 21.05 В 1 40 км н/о +8.4 +7.2 92 +8 +8 1020.7 1019.5
08 21.05 СВ 2 40 км н/о +10.6 +8.1 85 +9 +9 1020.9 1019.7
09 21.05 В 3 30 км н/о +11.8 +6.0 68 +10 +10 1021.0 1019.8
10 21.05 ЮВ 2 30 км н/о +13.6 +5.6 58 +13 +13 1021.0 1019.8
11 21.05 В 2 29 км н/о +14.8 +6.3 57 +15 +15 1020.9 1019.7
12 21.05 СВ 5 40 км н/о +15.2 +7.2 59 +14 +14 1020.8 1019.6
13 21.05 СВ 4 30 км н/о +15.7 +7.2 57 +15 +15 1020.9 1019.7
14 21.05 СВ 5 30 км н/о +16.3 +7.1 54 +15 +15 1020.8 1019.7
15 21.05 СВ 5 30 км н/о +14.9 +5.7 54 +14 +14 1020.7 1019.6
16 21.05 СВ 4 30 км н/о +15.2 +5.6 53 +14 +14 1020.7 1019.5
17 21.05 СВ 5 30 км н/о +14.6 +5.0 53 +13 +13 1020.6 1019.4
18 21.05 СВ 5 30 км н/о +14.5 +5.3 54 +13 +13 1020.6 1019.4 +16.3
19 21.05 СВ 4 45 км н/о +12.9 +5.3 60 +11 +11 1020.5 1019.3
20 21.05 СВ 4 45 км н/о +11.4 +5.4 67 +9 +9 1020.7 1019.5
21 21.05 В 3 45 км н/о +10.8 +5.6 70 +9 +9 1020.8 1019.6
22 21.05 В 3 50 км н/о +10.5 +5.9 73 +9 +9 1020.9 1019.7
23 21.05 В 2 45 км н/о +10.1 +6.1 76 +9 +9 1020.6 1019.4
00 22.05 В 2 50 км н/о +10.1 +6.1 76 +9 +9 1020.6 1019.4
01 22.05 В 2 45 км н/о +10.0 +6.4 78 +9 +9 1020.4 1019.2
02 22.05 В 2 40 км н/о +9.9 +6.6 80 +8 +8 1020.0 1018.8
03 22.05 В 2 50 км н/о +9.9 +7.1 83 +8 +8 1020.0 1018.8
04 22.05 ЮВ 2 40 км н/о +10.4 +7.1 80 +9 +9 1019.6 1018.4
05 22.05 ЮВ 2 45 км н/о +10.5 +7.7 83 +9 +9 1019.5 1018.3
06 22.05 ЮВ 2 45 км н/о +10.7 +8.1 84 +9 +9 1019.5 1018.3 +9.7
07 22.05 В 2 30 км н/о +11.3 +8.1 81 +10 +10 1019.4 1018.2
08 22.05 В 2 40 км н/о +12.5 +8.3 76 +12 +12 1019.4 1018.2
09 22.05 ЮВ 1 30 км н/о +13.1 +7.9 71 +13 +13 1019.5 1018.3

 

Местоположение метеостанции Белмаллет (Ирландия): широта 54.23 долгота -10.00 высота над уровнем моря 9 м.

В архиве по умолчанию представлена погода в Белмаллете за последнюю неделю. Архивные данные за месяц целиком и за предыдущие месяцы, начиная с января 2011 года, Вы можете получить, выбрав интересующий диапазон дат из раскрывающегося списка и нажав кнопку "Ввод!".


*Определитесь, кто Вы:
робот инопланетянин человек

Внимание! Время в таблицах - всемирное. Для получения местного времени необходимо прибавить поправку, которая равна 0 ч.

Смотрите также архив погоды в соседних городах и на ближайших метеорологических станциях:

Погода в Аэропорту Нок (Ирландия) (85 км)
Погода в Крэрморрисе (Ирландия) (88 км)
Погода в Обсерватории Мейс-Хед (Ирландия) (101 км)
Погода на Финнер-роуд (Ирландия) (118 км)
Погода в Томастауне (Великобритания) (157 км)
Погода в Каследерге (Великобритания) (165 км)
Погода в Баллихейзе (Ирландия) (176 км)
Погода в Аэропорту Шэннон (Ирландия) (186 км)
Погода в Гортине (Ирландия) (187 км)
Погода в Муллингаре (Ирландия) (189 км)

Пояснения к столбцам:

Ветер - указаны скорость ветра в м/с - средняя за 10 мин, порывы в срок и между сроками (в фигурных скобках) и направление, откуда дует ветер: С - северный, СВ - северо-восточный, В - восточный, ЮВ - юго-восточный, Ю - южный, ЮЗ - юго-западный, З - западный, СЗ - северо-западный.
Видимость - горизонтальная дальность видимости в метрах или километрах. При видимости от 1 до 10 км при отсутствии осадков обычно наблюдается дымка, при ухудшении видимости до 1 км и менее - туман. В сухую погоду видимость может ухудшаться дымом, пылью или мглою.
Явления - указаны атмосферные явления, наблюдавшиеся в срок или в последний час перед сроком; фигурными скобками обозначены явления, наблюдавшиеся между сроками (за 1-3 часа до срока); квадратными скобками обозначены град или гололедные отложения с указанием их диаметра в мм.
Облачность - указаны через наклонную черту общая и нижняя облачность в баллах и высота нижней границы облаков в метрах; квадратными скобками обозначены формы облаков: Ci - перистые, Cs - перисто-слоистые, Cc - перисто-кучевые, Ac - высококучевые, As - высокослоистые, Sc - слоисто-кучевые, Ns - слоисто-дождевые, Cu - кучевые, Cb - кучево-дождевые. Подробнее классификацию облаков см. в Атласе облаков (PDF).
T - Температура воздуха - температура, измеренная на высоте 2 м над землей.
Td - Температура точки росы - температура, при понижении до которой содержащийся в воздухе водяной пар достигнет насыщения.
f - Относительная влажность воздуха - влажноcть воздуха, измеренная на высоте 2 м над землей.
Te - Эффективная температура - температура, которую ощущает одетый по сезону человек в тени. Характеристика душности погоды. При расчете учитывается влияние влажности воздуха и скорости ветра на теплоощущения человека.
Tes - Эффективная температура на солнце - температура, которую ощущает человек, с поправкой на солнечный нагрев. Характеристика знойности погоды. Зависит от высоты солнца над горизонтом, облачности и скорости ветра. Ночью, в пасмурную погоду, а также при ветре 12 м/с и более поправка равна нулю.
P - Атмосферное давление - приведенное к уровню моря атмосферное давление.
Po - Атмосферное давление - измеренное на уровне метеостанции атмосферное давление.
Tmin - Минимальная температура - минимум температуры воздуха на высоте 2 м над землей.
Tmax - Максимальная температура - максимум температуры воздуха на высоте 2 м над землей.
R - Количество осадков - Количество выпавших осадков за период времени, мм. При наведении курсора мыши на число - период времени, за который выпало указанное количество осадков.
R24 - Количество осадков - Количество выпавших осадков за 24 часа, мм.
S - Снежный покров - Высота снежного покрова, см. При наведении курсора мыши на число - состояние снежного покрова и степень покрытия местности в баллах.